Other Public Products
Issued by NWS Charleston, SC

Current Version | Previous Version | Graphics & Text | Print | Product List | Glossary On
Versions: 1 2 3 4 5 6 7 8 9 10 11 12 13 14 15 16 17 18 19 20 21 22 23 24 25 26 27 28 29 30 31 32 33 34 35 36 37 38 39 40 41 42 43 44 45 46 47 48 49 50
611
FPUS82 KCHS 210027
OPUCHS

TEST...KCHS/KSAV Gateway Observations...TEST
National Weather Service Charleston SC
700 PM EST SAT JAN 20 2018

NOTE: "fair" indicates few or no clouds below 12,000 feet with no
significant weather and/or obstructions to visibility.

SCZ050-WAZ558-NCZ071-TXZ119-213-PAZ071-DCZ001-FLZ074-172-MI076-
NYZ176-178-MAZ016-IL014-TNZ027-NJZ106-GAZ044-MD014-210100-

...Gateway Observations for Charleston International...

CITY           SKY/WX    TMP DP  RH WIND       PRES   REMARKS
Chas Airport   FAIR      50  25  37 SW10      30.24R
6HR MIN TEMP:  47; 6HR MAX TEMP:  65;

Seattle        LGT RAIN  45  40  82 S13       30.04R
6HR MIN TEMP:  43; 6HR MAX TEMP:  47; 6HR PCP:  0.02;

Charlotte      FAIR      52  31  44 S7        30.18R
6HR MIN TEMP:  52; 6HR MAX TEMP:  60;

Dallas DFW     CLEAR     68  55  63 S15       29.87S
6HR MIN TEMP:  68; 6HR MAX TEMP:  73;

Dallas Love    PTCLDY    67  55  65 S20       29.90R
6HR MIN TEMP:  65; 6HR MAX TEMP:  71;

Philladelphia  MOCLDY    47  30  51 W8        30.03R
6HR MIN TEMP:  46; 6HR MAX TEMP:  57;

Wash National  MOCLDY    48  33  56 S6        30.04R
6HR MIN TEMP:  48; 6HR MAX TEMP:  63;

Baltimore      FAIR      44  31  60 CALM      30.03R
6HR MIN TEMP:  42; 6HR MAX TEMP:  60;

Miami          MOCLDY    72  60  66 NE7       30.20S
6HR MIN TEMP:  72; 6HR MAX TEMP:  76;

Detroit        FAIR      35  29  78 SW8       30.03R WCI  29
6HR MIN TEMP:  35; 6HR MAX TEMP:  43;

Newark         MOCLDY    46  28  49 W10       29.99R
6HR MIN TEMP:  46; 6HR MAX TEMP:  55;

Laguardia      MOCLDY    48  26  42 W14       29.97R
6HR MIN TEMP:  48; 6HR MAX TEMP:  54;

J F K          FAIR      47  29  49 W14       29.99R
6HR MIN TEMP:  46; 6HR MAX TEMP:  54;

Boston Logan   MOCLDY    43  27  53 SW12      29.86R
6HR MIN TEMP:  42; 6HR MAX TEMP:  47;

Ft. Lauderdale MOCLDY    70  62  76 NE7       30.20R
6HR MIN TEMP:  69; 6HR MAX TEMP:  72;

Chicago O`Hare MOCLDY    39  33  79 S5        29.96R WCI  36
6HR MIN TEMP:  39; 6HR MAX TEMP:  45;

Chicago Midway MOCLDY    42  37  82 S8        29.98R
6HR MIN TEMP:  42; 6HR MAX TEMP:  47;

Houston Bush   MOCLDY    69  65  86 S9        30.02S
6HR MIN TEMP:  66; 6HR MAX TEMP:  73; 6HR PCP:  0.01;

Houston Hobby  MOCLDY    66  65  96 SE9       30.03S
6HR MIN TEMP:  66; 6HR MAX TEMP:  72; 6HR PCP:  0.09;

Nashville      FAIR      55  33  43 S6        30.17R
6HR MIN TEMP:  55; 6HR MAX TEMP:  65;

Atlanta        FAIR      55  39  54 W3        30.23R
6HR MIN TEMP:  55; 6HR MAX TEMP:  64;


$$

GAZ044-118-TXZ119-213-NCZ071-DCZ001-MDZ014-506-PAZ021-071-NJZ106-
NYZ176-178-MAZ106-OHZ011-021-055-MIZ076-KYZ091-ILZ014-INZ047-
MNZ060-ONZ431-210100-

...Gateway Observations for Savannah International...

CITY           SKY/WX    TMP DP  RH WIND       PRES   REMARKS
Savannah Arpt  FAIR      53  31  42 SW8       30.25R
6HR MIN TEMP:  51; 6HR MAX TEMP:  65;

Atlanta        FAIR      55  39  54 W3        30.23R
6HR MIN TEMP:  55; 6HR MAX TEMP:  64;

Charlotte      FAIR      52  31  44 S7        30.18R
6HR MIN TEMP:  52; 6HR MAX TEMP:  60;

Dallas DFW     CLEAR     68  55  63 S15       29.87S
6HR MIN TEMP:  68; 6HR MAX TEMP:  73;

Houston Bush   MOCLDY    69  65  86 S9        30.02S
6HR MIN TEMP:  66; 6HR MAX TEMP:  73; 6HR PCP:  0.01;

Wash National  MOCLDY    48  33  56 S6        30.04R
6HR MIN TEMP:  48; 6HR MAX TEMP:  63;

Wash Dulles    FAIR      43  32  65 CALM      30.04R
6HR MIN TEMP:  42; 6HR MAX TEMP:  61;

Baltimore      FAIR      44  31  60 CALM      30.03R
6HR MIN TEMP:  42; 6HR MAX TEMP:  60;

Philadelphia   MOCLDY    47  30  51 W8        30.03R
6HR MIN TEMP:  46; 6HR MAX TEMP:  57;

Newark         MOCLDY    46  28  49 W10       29.99R
6HR MIN TEMP:  46; 6HR MAX TEMP:  55;

Laguardia      MOCLDY    48  26  42 W14       29.97R
6HR MIN TEMP:  48; 6HR MAX TEMP:  54;

J F K          FAIR      47  29  49 W14       29.99R
6HR MIN TEMP:  46; 6HR MAX TEMP:  54;

Boston         MOCLDY    43  27  53 SW12      29.86R
6HR MIN TEMP:  42; 6HR MAX TEMP:  47;

Pittsburg      FAIR      42  28  57 SW6       30.06R
6HR MIN TEMP:  42; 6HR MAX TEMP:  46;

Akron          FAIR      37  27  67 SW9       30.06R WCI  30
6HR MIN TEMP:  36; 6HR MAX TEMP:  43;

Cleveland      FAIR      39  29  67 S6        30.08R WCI  35
6HR MIN TEMP:  38; 6HR MAX TEMP:  43;

Cincinnati     CLOUDY    46  39  76 SW9       30.10R
6HR MIN TEMP:  44; 6HR MAX TEMP:  48;

Columbus       CLOUDY    39  31  74 S8        30.09F WCI  33
Detroit        FAIR      35  29  78 SW8       30.03R WCI  29
6HR MIN TEMP:  35; 6HR MAX TEMP:  43;

Chicago O`Hare MOCLDY    39  33  79 S5        29.96R WCI  36
6HR MIN TEMP:  39; 6HR MAX TEMP:  45;

Minneapolis    MOCLDY    40  33  76 SW3       29.92R
6HR MIN TEMP:  38; 6HR MAX TEMP:  42;

Indianapolis   CLOUDY    41  33  73 S8        30.07R
6HR MIN TEMP:  41; 6HR MAX TEMP:  45;

Toronto Canada CLEAR     36  28  75 W6        29.96R WCI  31

$$




USA.gov is the U.S. government's official web portal to all federal, state and local government web resources and services.